Location: Kalberh�ni
(46.4610°N, 7.2453°E)
Time: 14:46:36
(UTC+00:00)

Lacrosse 4 Rocket - Pass Details

Date: 18 October 2021
Orbit: 537 x 619 km, 68.0° (Epoch: 04 December)

Event Time Altitude Azimuth Distance (km) Brightness Sun altitude
Rises 20:18:23 0° 318° (NW) 2,810 5.8 -37.6°
Reaches altitude 10° 20:20:53 10° 305° (NW) 1,920 4.8 -37.9°
Enters shadow 20:21:20 12° 301° (WNW) 1,779 4.6 -38.0°
